FW5243 Weather Reports


time (UTC)temp
C
wind
direction
speed
KPH
gust
KPH
rain 1hr
cm
rain 24hr
cm
rain mn
cm
humidity
%
barometer
mb
20260510000033 10 190 3.2 8.0 0.00 0.99 0.99 89 1011.2
20260509234535 10 360 1.6 6.4 0.00 0.99 0.99 87 1010.8
20260509233032 11 360 0.0 3.2 0.00 0.99 0.99 84 1010.4
20260509231533 12 205 1.6 8.0 0.00 0.99 0.99 83 1010.5
20260509230031 12 181 3.2 8.0 0.00 0.99 0.99 82 1010.4
20260509224530 12 219 3.2 11.3 0.00 0.99 0.99 83 1010.7
20260509223030 13 157 1.6 8.0 0.00 0.99 0.99 84 1010.5
20260509221532 13 204 6.4 14.5 0.00 0.99 0.99 84 1010.4
20260509220024 12 195 1.6 8.0 0.00 0.99 0.99 88 1010.4
20260509214522 12 180 1.6 6.4 0.00 0.99 0.99 89 1010.8
20260509213018 11 140 1.6 4.8 0.00 0.99 0.99 90 1011.0
20260509211532 11 181 0.0 3.2 0.03 0.99 0.99 90 1011.2
20260509210015 11 124 0.0 4.8 0.03 0.99 0.99 91 1011.3
20260509204512 11 128 0.0 0.0 0.05 0.99 0.99 93 1011.3
20260509203022 11 160 0.0 6.4 0.08 0.99 0.99 93 1011.3
20260509201508 10 204 0.0 3.2 0.05 0.97 0.97 92 1011.4
20260509200008 10 155 0.0 3.2 0.08 0.97 0.97 92 1011.5
20260509194506 10 168 1.6 6.4 0.03 0.91 0.91 92 1011.8
20260509193005 10 128 1.6 4.8 0.03 0.91 0.91 92 1011.9
20260509191505 10 142 3.2 12.9 0.03 0.91 0.91 92 1011.9
20260509190006 11 360 4.8 9.7 0.00 0.89 0.89 92 1012.0
20260509184502 11 175 3.2 11.3 0.00 0.89 0.89 92 1012.1
20260509183058 11 132 0.0 12.9 0.00 0.89 0.89 92 1012.1
20260509181608 10 176 1.6 8.0 0.08 0.89 0.89 92 1012.2
20260509180055 10 181 4.8 14.5 0.13 0.89 0.89 93 1012.0
20260509174555 10 94 3.2 11.3 0.15 0.89 0.89 95 1011.7
20260509173106 10 139 1.6 6.4 0.18 0.89 0.89 95 1011.8
20260509171603 10 134 1.6 12.9 0.10 0.81 0.81 95 1011.9
20260509170052 10 117 1.6 11.3 0.08 0.76 0.76 95 1012.0
20260509164550 10 130 1.6 16.1 0.08 0.86 0.71 95 1012.0
20260509163057 10 152 3.2 9.7 0.08 0.84 0.71 95 1012.2
20260509161546 10 145 4.8 17.7 0.08 0.84 0.71 95 1012.3
20260509160045 10 125 3.2 12.9 0.08 0.81 0.69 95 1012.4
20260509154544 10 122 0.0 6.4 0.05 0.89 0.66 95 1012.6
20260509153041 9 135 0.0 3.2 0.03 0.86 0.64 95 1012.7
20260509151537 9 109 0.0 3.2 0.05 0.86 0.64 96 1013.0
20260509150037 9 152 0.0 1.6 0.03 0.84 0.61 96 1013.2
20260509144532 8 119 0.0 1.6 0.05 0.84 0.61 95 1013.2
20260509143031 8 132 0.0 0.0 0.05 0.84 0.61 95 1013.3
20260509141531 8 117 0.0 0.0 0.03 0.81 0.58 95 1013.4
20260509140030 8 115 0.0 0.0 0.05 0.81 0.58 95 1013.3
20260509134528 8 121 0.0 0.0 0.03 0.79 0.56 95 1013.2
20260509133028 8 125 0.0 0.0 0.03 0.79 0.56 95 1013.1
20260509131531 8 125 0.0 0.0 0.05 0.79 0.56 95 1013.0
20260509130026 8 125 0.0 0.0 0.03 0.76 0.53 96 1013.1
20260509124524 8 125 0.0 0.0 0.03 0.76 0.53 95 1013.1
20260509123022 8 124 0.0 1.6 0.03 0.76 0.53 96 1013.3
20260509121525 8 144 0.0 1.6 0.00 0.71 0.51 96 1013.4
20260509120021 8 250 0.0 0.0 0.00 0.71 0.51 96 1013.3
20260509114520 8 252 0.0 0.0 0.00 0.71 0.51 96 1013.3
20260509113020 7 252 0.0 0.0 0.03 0.71 0.51 96 1013.4
20260509111519 7 146 0.0 0.0 0.03 0.71 0.51 96 1013.5
20260509110018 7 146 0.0 0.0 0.03 0.71 0.51 96 1013.5
20260509104518 7 146 0.0 0.0 0.05 0.71 0.51 95 1013.5
20260509103017 7 146 0.0 0.0 0.08 0.71 0.48 95 1013.6
20260509101517 7 146 0.0 1.6 0.10 0.71 0.48 95 1013.5
20260509100016 7 134 0.0 3.2 0.13 0.71 0.48 95 1013.5
20260509094515 7 141 0.0 0.0 0.10 0.69 0.46 95 1013.8
20260509093014 7 141 0.0 0.0 0.05 0.64 0.41 95 1013.6
20260509091523 7 141 0.0 0.0 0.05 0.61 0.38 95 1013.7
20260509090015 7 159 0.0 0.0 0.05 0.58 0.36 95 1013.8
20260509084519 7 149 0.0 0.0 0.10 0.58 0.36 95 1013.9
20260509083011 7 143 0.0 1.6 0.13 0.58 0.36 95 1013.8
20260509081510 7 211 0.0 0.0 0.13 0.56 0.33 95 1013.9
20260509080020 7 213 0.0 0.0 0.10 0.51 0.28 95 1014.0
20260509074507 7 213 0.0 0.0 0.13 0.48 0.25 94 1014.4
20260509073013 7 213 0.0 0.0 0.15 0.46 0.23 94 1014.3
20260509071505 7 213 0.0 0.0 0.15 0.43 0.20 94 1014.5
20260509070006 7 213 0.0 0.0 0.13 0.38 0.15 94 1014.6
20260509064503 7 214 0.0 0.0 0.10 0.36 0.13 94 1014.7
20260509063002 7 214 0.0 0.0 0.08 0.30 0.08 93 1014.8
20260509061501 7 216 0.0 6.4 0.05 0.28 0.05 93 1015.0
20260509054605 8 221 0.0 0.0 0.03 0.25 0.03 92 1014.7
20260509053058 8 221 0.0 0.0 0.00 0.23 0.00 91 1014.7
20260509051603 8 221 0.0 0.0 0.00 0.23 0.00 92 1014.8
20260509050055 7 221 0.0 0.0 0.00 0.23 0.00 90 1014.7
20260509044555 8 221 0.0 3.2 0.00 0.36 0.00 90 1014.6
20260509043056 8 220 0.0 0.0 0.00 0.36 0.00 90 1014.6
20260509041546 8 220 0.0 0.0 0.00 0.36 0.00 90 1014.9
20260509040054 7 220 0.0 3.2 0.00 0.36 0.00 91 1015.0
20260509034543 7 220 0.0 0.0 0.00 0.48 0.36 89 1015.0
20260509033042 7 220 0.0 3.2 0.00 0.48 0.36 89 1015.0
20260509031543 7 220 3.2 4.8 0.00 0.48 0.36 89 1015.0
20260509030044 7 219 1.6 6.4 0.00 0.48 0.36 88 1015.0
20260509024541 7 178 0.0 0.0 0.00 0.48 0.36 88 1014.9
20260509023042 8 178 0.0 4.8 0.00 0.48 0.36 87 1015.0
20260509021540 8 157 0.0 3.2 0.00 0.48 0.36 87 1014.9
20260509020040 8 157 1.6 4.8 0.00 0.48 0.36 86 1015.0
20260509014539 8 150 0.0 3.2 0.00 0.48 0.36 86 1014.9
20260509013047 8 150 0.0 3.2 0.00 0.48 0.36 86 1014.9
20260509011538 8 150 0.0 3.2 0.00 0.48 0.36 86 1014.7
20260509010040 8 150 1.6 3.2 0.00 0.48 0.36 86 1014.7
20260509004559 8 150 0.0 3.2 0.00 0.48 0.36 85 1014.4
20260509003043 8 150 0.0 3.2 0.00 0.48 0.36 84 1014.3
20260509001536 9 140 1.6 11.3 0.00 0.48 0.36 83 1014.2